Погода в Сьерра-Неваде

Испания     37°05′45″N   3°23′51″W
темп.,
°C
ветер,
м/с
пор.,
м/с
влажн.,
%
обл.,
%
осадки,
мм/ч
давл.,
гПа
погр.,
м
19 апреля, пн
пн1923:00+7в016165 0.0 102217
02:00+6вюв116211 0.0 102112
05:00+5юв1165100 0.0 102011
08:00+6юв116577 0.0 102013
11:00+11зсз223598 0.0 1020543
14:00+14зсз333359 0.0 10181090
17:00+15сз453923 0.0 10161527
20:00+13сз455279 0.0 1016733
20 апреля, вт
вт2023:00+11ссз346597 0.1 1018179
02:00+8с32753 0.2 101729
05:00+8с22752 0.0 101614
08:00+7с11740 0.0 101611
11:00+13зсз33505 0.0 10151272
14:00+15зсз444098 0.0 10141669
17:00+15зсз4541100 0.0 10121669
20:00+12сз4554100 0.0 1013760
21 апреля, ср
ср2123:00+10ссз346269 0.0 1015132
02:00+8с337141 0.0 101440
05:00+7с337295 0.0 101340
08:00+8с2266100 0.0 101330
11:00+13зсз2243100 0.0 1013573
14:00+15зсз443743 0.0 10121167
17:00+16зсз3442100 0.0 10111317
20:00+13сз3356100 0.0 1012461
22 апреля, чт
чт2223:00+11с2259100 0.0 101377
02:00+9с3378100 1.4 1014221
05:00+10в1176100 1.4 101245
08:00+8с118892 1.9 101345
11:00+12зсз33654 1.4 1013563
14:00+14сз45590 2.5 10121260
17:00+14сз574745 0.2 10121965
20:00+12с465431 0.3 1013836
23 апреля, пт
пт2323:00+10ссв336115 0.0 101541
02:00+9св225288 0.0 101515
05:00+7вюв115615 0.0 101410
08:00+8вюв3366100 0.0 101426
11:00+12ююв2357100 0.0 1015768
14:00+16ююз334861 0.0 10141353
17:00+14ююз3372100 0.1 1014817
20:00+12ююв237795 0.1 1014478